Вернуться в каталог

STARLINK-35199

АктивенСвязьVLEO
NORAD 65858·PAYLOAD·🇺🇸 United States

Запущен Oct 3, 2025 с Vandenberg Space Force Base

Loading…

Ближайшие Пролёты (ближайшие 24 часа)

TLE

СвежийSource: CelesTrak SupGP

Эпоха: Sep 14, 2026, 14:47 UTC

1 65858C 25223E   26257.61645833  .00050211  00000+0  14834-2 0  2571
2 65858  53.1570 134.9578 0001079 101.0133 300.5950 15.34368296    18

Отслеживайте STARLINK-35199 в реальном времени с AllMySat

Download on the App Store